Lexington Weather

Lexington, Massachusetts, USA

76°F
8/7/2020 12:03pm 
  • Lexington Conditions: Mostly cloudy
  • Temperature: 75.9°F / 24.4°CWarmer 4.1°F than last hour.
  • Dew Point: 63.7°FIncreased 0.2°Fsince last hour.
  • Relative Humidity: 66%Decreased 9.0% since last hour.
  • Wind: Wind from N N 1 mph, 10-min avg: Calm, gust: 2 mph
  • Barometer: 30.13 inFalling 0.02  inHg/hr Falling Slowly
  • Visibility: 10 miles
  • Rain Today: 0.00 in
  •   

Regional Weather Roundup
for Boston / Norton, MA

        
000
ASUS41 KBOX 032005
RWRBOX

REGIONAL WEATHER ROUNDUP
NATIONAL WEATHER SERVICE BOSTON/NORTON MA
400 PM EDT MON AUG 03 2020

NOTE:  "FAIR" INDICATES FEW OR NO CLOUDS BELOW 12,000 FEET WITH NO 
SIGNIFICANT WEATHER AND/OR OBSTRUCTIONS TO VISIBILITY.

MAZALL-032100-
EASTERN MASSACHUSETTS
  
CITY           SKY/WX    TMP DP  RH WIND       PRES   REMARKS
BOSTON         MOSUNNY   91  61  36 W15G26    29.94R HX  91           
BEVERLY        SUNNY     90  61  37 W21G28    29.93S HX  90           
LAWRENCE       SUNNY     88  63  43 SW15G24   29.96R                  
BEDFORD        MOSUNNY   89  65  44 W15G22    29.95R HX  91           
BLUE HILL      NOT AVBL                                               
NORWOOD        SUNNY     92  63  38 SW12G21   29.95R HX  93           
MARSHFIELD     SUNNY     95  61  31 W14G23    29.93S HX  95           
PLYMOUTH       SUNNY     93  62  35 SW15G24   29.95S HX  93           
TAUNTON        SUNNY     93  61  34 SW14G24   29.95S HX  93           
NEW BEDFORD    MOSUNNY   90  66  45 SW16      29.97S HX  92           
$$

MAZALL-032100-
CAPE COD AND THE ISLANDS
  
CITY           SKY/WX    TMP DP  RH WIND       PRES   REMARKS
FALMOUTH       SUNNY     86  64  48 SW21G32   29.99S                  
HYANNIS        SUNNY     87  65  47 SW20G33   29.97S                  
CHATHAM        SUNNY     86  72  62 SW10G20   30.00F HX  92           
PROVINCETOWN   SUNNY     84  71  65 SW16G25   29.96S                  
NANTUCKET      SUNNY     80  74  81 SW17      30.02S                  
MARTHAS VNYRD  SUNNY     87  68  52 SW17      30.01S HX  90           
$$
 
MAZALL-032100-
CENTRAL AND WESTERN MASSACHUSETTS
  
CITY           SKY/WX    TMP DP  RH WIND       PRES   REMARKS
WORCESTER      MOSUNNY   84  62  47 W12G23    30.02S                  
FITCHBURG      SUNNY     88  60  38 W13G20    29.98S                  
ORANGE         MOSUNNY   86  61  42 NW10      30.01R                  
SPRINGFIELD    PTSUNNY   87  63  45 NW9       29.97R                  
WESTFIELD      MOSUNNY   88  64  44 W9G18     29.98S                  
NORTH ADAMS    PTSUNNY   84  63  49 NW8       30.02S                  
PITTSFIELD     MOSUNNY   83  62  49 NW9       30.03S                  
$$
 
RIZALL-032100-
RHODE ISLAND
  
CITY           SKY/WX    TMP DP  RH WIND       PRES   REMARKS
PROVIDENCE     MOSUNNY   93  63  36 W15       29.97S HX  94           
NEWPORT        SUNNY     86  65  49 S10G23    29.99S                  
BLOCK ISLAND   SUNNY     80  67  64 SW18G24   30.03R                  
SMITHFIELD     MOSUNNY   89  62  40 W8G21     29.98F                  
WESTERLY       SUNNY     88  60  38 SW14G21   30.01S                  
$$
 
CTZALL-032100-
CONNECTICUT
  
CITY           SKY/WX    TMP DP  RH WIND       PRES   REMARKS
BRADLEY INTL   MOSUNNY   91  61  36 W10G21    29.97F HX  91           
HARTFORD       MOSUNNY   90  62  39 SW10G18   29.97F HX  90           
BRIDGEPORT     SUNNY     88  65  46 SW13      30.00S HX  90           
DANBURY        SUNNY     86  63  45 W9        30.03S                  
GROTON         SUNNY     84  68  58 SW12      29.99S                  
NEW HAVEN      SUNNY     88  67  49 SW10G18   30.00S HX  91           
CHESTER        NOT AVBL                                               
MERIDEN        SUNNY     89  61  38 SW8G21    29.99F                  
WILLIMANTIC    SUNNY     89  60  37 SW12      29.98F                  
OXFORD         MOSUNNY   86  64  47 W8G17     30.04S                  
$$

MEZ002-015-021-024-NHZ003-005-008-011-012-014-VTZ005-008-032100-
NORTHERN NEW ENGLAND
  
CITY           SKY/WX    TMP DP  RH WIND       PRES   REMARKS
PORTLAND ME    PTSUNNY   90  61  37 W13G28    29.91R HX  90           
BANGOR ME      PTSUNNY   85  63  47 W12G22    29.84R                  
CONCORD NH     PTSUNNY   85  60  42 W14G23    29.96R                  
MANCHESTER NH  MOSUNNY   89  60  37 W16G23    29.95R                  
NASHUA NH      MOSUNNY   87  63  44 W10G23    29.96S                  
PORTSMOUTH NH  MOSUNNY   89  58  34 W14G22    29.91                   
JAFFREY NH     PTSUNNY   82  59  45 W10       30.03R                  
KEENE NH       MOSUNNY   82  62  50 W8G17     30.01R                  
BURLINGTON VT  MOSUNNY   79  60  52 W10       29.99S                  
MT. WASHINGTON LGT RAIN  50  50 100 W62G68      N/A  VSB 0            
$$

NYZ052-076-032100-
EASTERN NEW YORK
  
CITY           SKY/WX    TMP DP  RH WIND       PRES   REMARKS
ALBANY         PTSUNNY   82  62  50 W10       30.01S                  
NEW YORK CITY  MOSUNNY   92  59  33 SW15G21   30.00F HX  91           
$$
 
ANZALL-032100-
MARINE OBSERVATIONS
  
STATION/POSITION TIME  TEMP    WIND        PRES    VSBY  WAVE
                       AIR SEA DIR/SP/G                  HT/PER
                 (UTC) (F)     (DEG/KT/KT) (MB)    (MI)  (FT/S)
BOSTON BUOY      1950   79 70  280/ 14/ 16 1012.3R         2/ 3
BUZZARDS BAY     1900          230/ 21/ 22 1016.7S
NANTUCKET SOUND  1940      78  230/ 17/ 25 1015.0R
MASS BAY-STELLWA 1904   76     260/ 10/ 12 1011.4R  1 7/8  2/ 3
ISLE OF SHOALS   1900   82     260/ 18/ 21 1012.4R
S OF BLOCK IS    1926      75                N/A           5/ 7
$$

......................KEY.........................
  SKY/WX - SKY CONDITION/PRESENT WEATHER
  TMP    - TEMPERATURE IN FAHRENHEIT
  DWPT   - DEWPOINT IN FAHRENHEIT
  RH     - RELATIVE HUMIDITY IN PERCENT
  WIND   - DIRECTION AND SPEED IN MPH
  PRES   - MEAN SEA LEVEL PRESSURE IN INCHES OF HG
  WCI    - WIND CHILL INDEX
  VSB    - VISIBILITY IN MILES
  HX     - HEAT INDEX
  TC     - TEMPERATURE IN CELSIUS
  VRB    - VARIABLE WIND DIRECTION
  N/A    - NOT AVAILABLE
  
      

Other recent Regional Weather Roundups

Fri Aug 7, 11:04am

Fri Aug 7, 10:04am

Fri Aug 7, 9:04am

Fri Aug 7, 8:04am

Fri Aug 7, 7:04am

Fri Aug 7, 6:04am

Fri Aug 7, 5:04am

Fri Aug 7, 4:04am

Fri Aug 7, 3:04am

Fri Aug 7, 2:04am

Fri Aug 7, 1:05am

Fri Aug 7, 12:04am

Thu Aug 6, 11:04pm

Thu Aug 6, 10:04pm

Thu Aug 6, 9:04pm

Thu Aug 6, 8:04pm

Thu Aug 6, 7:04pm

Thu Aug 6, 6:04pm

Thu Aug 6, 5:04pm

Thu Aug 6, 4:05pm

Thu Aug 6, 3:04pm

Thu Aug 6, 2:05pm

Thu Aug 6, 1:04pm

Thu Aug 6, 12:04pm

Thu Aug 6, 11:04am

Thu Aug 6, 10:04am

Thu Aug 6, 9:04am

Thu Aug 6, 8:04am

Thu Aug 6, 7:04am

Thu Aug 6, 6:04am

Thu Aug 6, 5:04am

Thu Aug 6, 4:04am

Thu Aug 6, 3:04am

Thu Aug 6, 2:05am

Thu Aug 6, 1:04am

Thu Aug 6, 12:04am

Wed Aug 5, 11:04pm

Wed Aug 5, 10:04pm

Wed Aug 5, 9:04pm

Wed Aug 5, 8:05pm

Wed Aug 5, 7:04pm

Wed Aug 5, 6:04pm

Wed Aug 5, 5:04pm

Wed Aug 5, 4:05pm

Wed Aug 5, 3:04pm

Wed Aug 5, 2:04pm

Wed Aug 5, 1:04pm

Wed Aug 5, 12:04pm

Wed Aug 5, 11:04am

Wed Aug 5, 10:04am

Wed Aug 5, 9:04am

Wed Aug 5, 8:04am

Wed Aug 5, 7:04am

Wed Aug 5, 6:04am

Wed Aug 5, 5:04am

Wed Aug 5, 4:04am

Wed Aug 5, 3:04am

Wed Aug 5, 2:05am

Wed Aug 5, 1:04am

Wed Aug 5, 12:05am

Tue Aug 4, 11:05pm

Tue Aug 4, 10:05pm

Tue Aug 4, 9:04pm

Tue Aug 4, 8:04pm

Tue Aug 4, 7:05pm

Tue Aug 4, 6:05pm

Tue Aug 4, 5:05pm

Tue Aug 4, 4:05pm

Tue Aug 4, 3:04pm

Tue Aug 4, 2:05pm

Tue Aug 4, 1:04pm

Tue Aug 4, 12:05pm

Tue Aug 4, 11:04am

Tue Aug 4, 10:04am

Tue Aug 4, 9:04am

Tue Aug 4, 8:04am

Tue Aug 4, 7:04am

Tue Aug 4, 6:04am

Tue Aug 4, 5:04am

Tue Aug 4, 4:04am

Tue Aug 4, 3:04am

Tue Aug 4, 2:04am

Tue Aug 4, 1:04am

Tue Aug 4, 12:04am

Mon Aug 3, 11:04pm

Mon Aug 3, 10:04pm

Mon Aug 3, 9:04pm

Mon Aug 3, 8:05pm

Mon Aug 3, 7:04pm

Mon Aug 3, 6:04pm

Mon Aug 3, 5:04pm

Mon Aug 3, 3:04pm

Mon Aug 3, 2:04pm

Mon Aug 3, 1:04pm

Mon Aug 3, 12:05pm

Mon Aug 3, 11:04am

Mon Aug 3, 10:04am

Mon Aug 3, 9:05am

Mon Aug 3, 8:04am

Mon Aug 3, 7:04am

Mon Aug 3, 6:04am

Mon Aug 3, 5:04am

Mon Aug 3, 4:04am

Mon Aug 3, 3:04am

Mon Aug 3, 2:04am

Mon Aug 3, 1:04am

Mon Aug 3, 12:05am

Sun Aug 2, 11:04pm

Sun Aug 2, 10:04pm

Sun Aug 2, 9:04pm

Sun Aug 2, 8:04pm

Sun Aug 2, 7:04pm

Sun Aug 2, 6:04pm

Sun Aug 2, 5:04pm

Sun Aug 2, 4:05pm

Sun Aug 2, 3:04pm

Sun Aug 2, 2:05pm

Sun Aug 2, 1:04pm

Sun Aug 2, 12:04pm

Sun Aug 2, 11:04am

Sun Aug 2, 10:04am

Sun Aug 2, 9:05am

Sun Aug 2, 8:05am

Sun Aug 2, 7:04am

Sun Aug 2, 6:04am

Sun Aug 2, 5:04am

Sun Aug 2, 4:05am

Sun Aug 2, 3:04am

Sun Aug 2, 2:04am

Sun Aug 2, 1:04am

Sun Aug 2, 12:05am

Sat Aug 1, 11:04pm

Sat Aug 1, 10:04pm

Sat Aug 1, 9:04pm

Sat Aug 1, 8:05pm

Sat Aug 1, 7:04pm

Sat Aug 1, 6:04pm

Sat Aug 1, 5:05pm

Sat Aug 1, 4:05pm

Sat Aug 1, 3:04pm

Sat Aug 1, 2:04pm

Sat Aug 1, 1:04pm

Sat Aug 1, 12:04pm

Sat Aug 1, 11:05am

Sat Aug 1, 10:05am

Sat Aug 1, 9:04am

Sat Aug 1, 8:04am

Sat Aug 1, 7:04am

Sat Aug 1, 6:04am

Sat Aug 1, 5:04am

Sat Aug 1, 4:05am

Sat Aug 1, 3:04am

Sat Aug 1, 2:04am

Sat Aug 1, 1:04am

Sat Aug 1, 12:05am

Fri Jul 31, 11:05pm

Fri Jul 31, 10:04pm

Fri Jul 31, 9:04pm

Fri Jul 31, 8:05pm

Fri Jul 31, 7:05pm

Fri Jul 31, 6:04pm

Fri Jul 31, 5:04pm

Fri Jul 31, 4:05pm

Fri Jul 31, 3:04pm

Fri Jul 31, 2:05pm

Fri Jul 31, 1:04pm

Fri Jul 31, 12:04pm

Meta data:

ID: a36ec74d-b1e8-43aa-a6e0-74296a7e164d
Link: https://api.weather.gov/products/a36ec74d-b1e8-43aa-a6e0-74296a7e164d